REX 2

Satellite information

Favourite Embed

Satellite Type and Status

PAYLOADIN ORBIT

Key statistics

Satellite REX 2 at a glance.

Uptime

10711

Days in orbit

Revolutions

≈ 14.3

Per day

Orbit

SSO

Sun Synchronous Orbit

Inclination

90.0

Latest

Satellite identification and parameters

Extended collection of information and parameters for REX 2.

Object identification

Identified? True

Debris? False

Object name: REX 2

International designator: 1996-014A

Object number (NORAD): 23814

Object ID (CCSDS): 23814

Country: UNITED STATES OF AMERICA (US)

Current information (Y/N): Y

RCS size: MEDIUM

Orbital parameters

Period: 101.036 minutes

Inclination: 90.0188 deg

SMA: 7185.843 km

Apoapsis: 823.089 km

Periapsis: 792.326 km

RAAN: 340.625 deg

Eccentricy: 0.0021405

Argument of periapsis: 192.7316 deg

Mean anomaly: 167.3339 deg

Mean motion: 14.25234112 rev/day

Mean motion (dot): 0.00000151 rev/day2

B* drag term: 0.000059196 1/REarth

Two-line elements (TLE)

Creation date: July 5, 2025, 5:45 p.m.

Reference frame: TEME

Reference center: EARTH

Epoch: July 5, 2025, 10:37 a.m. UTC

TLE line 0: 0 REX 2

TLE line 1: 1 23814U 96014A 25186.44268368 .00000151 00000-0 59196-4 0 9992

TLE line 2: 2 23814 90.0188 340.6250 0021405 192.7316 167.3339 14.25234112523802

Live tracking on map

Real-time ground track for satellite REX 2.

In-orbit conjunctions

A list of the most updated potential collisions computed for object REX 2.

Target Orbit TCA Probability of collision Miss distance Type
DELTA 1 DEB SSO 2024-11-21 20:56:29 0.0002161451 332.0 (m) DEBRIS
COSMOS 2251 DEB LEO 2024-09-15 21:28:52 0.0006355118 838.0 (m) DEBRIS
FENGYUN 1C DEB SSO 2024-08-11 19:25:32 0.0001298082 903.0 (m) DEBRIS
CZ-6A DEB SSO 2024-07-09 23:31:57 0.0001270382 924.0 (m) DEBRIS
FENGYUN 1C DEB SSO 2024-06-05 22:07:54 0.000341898 882.0 (m) DEBRIS

Associated space launch

REX 2 was lifted into orbit during the mission ‘Pegasus XL | REX II’, on board a Pegasus XL space rocket.

The launch took place on March 9, 1996, 1:33 a.m. from Vandenberg Space Force Base.

For more information about the launch, click the button.

Launch to space Pegasus XL | REX II
Pegasus XL | REX II

Agency: N/A

Status: Launch Successful

Launch date: March 9, 1996, 1:33 a.m. UTC

Rocket: Pegasus XL

Launch pad: Vandenberg Space Force Base

Location: Air launch to orbit

...

Latest news about this satellite

There are no fresh news available about this satellite. Check back as we update our databases every day.


Newsletter sign-up

Weekly statistics, charts and insights to help you stay on top of the space industry.